Weather in Dzhizak

Uzbekistan     40˚07′13″N   67˚49′42″E
temp.,
°C
wind,
m/s
gust,
m/s
humid.,
%
clouds,
%
prec.,
mm/h
press.,
hPa
HPBL,
m
2 december, wed
wed223:00+4˚sw23570 0.0 102722
02:00+4˚ssw225863 0.0 102722
05:00+4˚ssw226282 0.0 102722
08:00+4˚ssw116781 0.0 102722
11:00+8˚n105790 0.0 102789
14:00+9˚ne1153100 0.0 1025175
17:00+6˚ene2266100 0.1 102528
20:00+4˚ne126959 0.0 102622
3 december, thu
thu323:00+3˚ne117160 0.0 102522
02:00+4˚s117429 0.1 102522
05:00+4˚ne117556 0.1 102622
08:00+2˚nne127399 0.0 102642
11:00+4˚nne1165100 0.0 1026137
14:00+5˚ene1165100 0.0 1025120
17:00+3˚ne2270100 0.0 1025134
20:00+2˚ne2370100 0.0 1026181
4 december, fri
fri423:00+1˚ne2271100 0.0 1026108
02:00ne2374100 0.0 1026180
05:00−1˚ne2275100 0.1 1026145
08:00−3˚ne2377100 0.0 1028150
11:00−1˚nne216996 0.0 1029235
14:00+3˚ne32605 0.0 1028336
17:00ne34644 0.0 1030145
20:00−2˚ne227178 0.0 103150
5 december, sat
sat523:00−3˚nne117259 0.0 103121
02:00−3˚ssw01670 0.0 103121
05:00−3˚ne01642 0.0 103021
08:00−3˚ne116760 0.0 103035
11:00nne215779 0.0 1029207
14:00+2˚ne225385 0.0 1027285
17:00ne336590 0.0 1027128
20:00−2˚ne1267100 0.0 102936
6 december, sun
sun623:00−3˚ne116879 0.0 102923
02:00−4˚ne116948 0.0 102922
05:00−4˚ne117158 0.0 102921
08:00−4˚nne117180 0.0 103021
11:00−1˚ne225450 0.0 1028228
14:00+2˚ne33450 0.0 1027336
17:00ne225610 0.0 102736
20:00−2˚ene226267 0.0 102750